SCP
0 0 0 0 0 0 0 0 0 0 0 0 0 0 0 0 0 0 0 -0 0 0 -0 0 0 0 0 0 0 0 0 0 0 0 0 0 0 0 0 0 0 0 0 0
0 0 0 0 0 0 0 0 0 0 0 0 0 0 0 0 -0 -0 -0 0 0 0 0 0 0 0 0 0 0 0 0 0 0 0 0 0 0 0 0 0 0 0 0 0
0 0 0 0 0 0 0 0 0 0 0 0 -0 -0 -0 -0 -0 -0 0 0 0 0 0 0 0 0 0 0 0 0 0 0 0 0 0 0 0 0 0 0 0 0 0 0
0 0 0 0 0 0 0 0 0 0 0 0 -0 -0 -0 0 0 0 0 0 0 0 0 0 0 0 0 0 0 0 0 0 0 0 0 0 0 0 0 0 0 0 0 0
0 0 0 0 0 0 0 -0 0 0 0 -0 -0 -0 -0 0 0 0 0 0 0 0 0 0 0 0 0 0 0 0 0 0 0 0 0 0 0 0 0 0 0 0 0 0
0 0 0 0 0 0 0 -0 0 0 -0 -0 -0 -0 0 0 0 0 0 0 0 0 0 0 0 0 0 0 0 0 0 0 0 0 0 0 0 0 0 0 0 0 0 0
0 0 0 0 0 -0 0 -0 0 -0 -0 -0 -0 0 0 -0 0 0 0 0 0 0 0 0 0 0 0 0 0 0 0 0 0 0 0 0 0 0 0 0 0 0 0 0
0 0 0 0 -0 0 0 -0 0 -0 -0 -0 -0 -0 0 0 0 0 0 0 0 0 0 0 0 0 0 0 0 0 0 0 0 0 0 0 0 0 0 0 0 0 0 0
0 0 0 -0 0 0 0 -0 -0 -0 -0 -0 0 0 0 0 0 0 0 0 0 0 0 0 0 0 0 0 0 0 0 0 0 0 0 0 0 0 0 0 0 0 0 0
0 0 0 0 0 0 0 0 0 0 0 0 0 0 0 0 -0 0 0 0 0 0 0 0 0 0 0 0 0 0 0 0 0 0 0 0 0 0 0 0 0 0 0 0
0 0 0 0 0 0 0 0 0 0 0 0 0 0 0 -0 -0 -0 -0 0 0 0 0 0 0 0 0 0 0 0 0 0 0 0 0 0 0 0 0 0 0 0 0 0
0 0 0 0 0 0 0 -0 0 0 0 0 0 0 -0 -0 -0 -0 -0 -0 0 0 0 0 0 0 0 0 0 0 0 0 0 0 0 0 0 0 0 0 0 0 0 0
0 0 0 0 0 0 0 0 0 0 0 -0 0 0 -0 -0 -0 -0 -0 -0 0 -0 -0 0 0 0 0 0 0 0 0 0 0 0 0 0 0 0 0 0 0 0 0 0
0 0 0 0 0 0 -0 -0 0 0 0 0 -0 0 -0 -0 -0 -0 -0 -0 -0 -0 -0 0 0 0 0 0 0 0 0 0 0 0 0 0 0 0 0 0 0 0 0 0
0 0 0 0 0 -0 -0 0 0 0 0 -0 0 -0 -0 -0 -0 -0 -0 -0 -0 0 -0 0 0 0 0 0 0 0 0 0 0 0 0 0 0 0 0 0 0 0 0 0
0 0 0 0 -0 -0 0 0 -0 0 0 0 -0 -0 -0 -0 -0 -0 -0 -0 0 -0 0 0 0 0 0 0 0 0 0 0 0 0 0 0 0 0 0 0 0 0 0 0
0 0 0 0 -0 -0 0 0 0 0 0 -0 -0 -0 -0 -0 -0 -0 -0 -0 0 0 0 0 0 0 0 0 0 0 0 0 0 0 0 0 0 0 0 0 0 -0 0 0
0 0 0 0 -0 0 0 0 0 0 0 -0 -0 -0 -0 -0 -0 -0 -0 0 0 0 0 0 0 0 0 0 0 0 0 0 0 0 0 0 0 0 0 0 -0 -0 0 0
0 0 0 0 0 0 0 0 0 0 0 -0 -0 -0 -0 -0 -0 0 0 0 0 0 0 0 0 0 0 0 0 0 0 0 0 0 0 0 0 0 0 0 0 -0 0 0
0 0 -0 -0 0 0 -0 0 0 0 0 -0 -0 -0 0 -0 -0 -0 0 0 0 0 0 0 0 0 0 0 0 0 0 0 0 0 0 0 0 0 0 0 0 0 0 0
0 0 -0 -0 0 0 -0 0 0 0 0 0 0 -0 -0 -0 0 0 0 0 0 0 0 0 0 0 0 0 0 0 0 0 0 0 0 0 0 0 0 0 0 0 0 0
0 -0 -0 -0 0 0 0 0 0 0 0 0 0 -0 -0 0 0 0 0 0 0 0 0 0 0 0 0 0 0 0 0 0 0 0 0 0 0 0 0 0 0 0 0 0
0 -0 -0 0 0 0 0 0 0 0 0 0 0 0 -0 0 0 0 0 0 0 0 0 0 0 0 0 0 0 0 0 0 0 0 0 0 0 0 0 0 0 0 0 0
0 -0 -0 0 -0 -0 0 0 0 0 0 0 0 0 0 0 0 0 0 0 0 0 0 0 0 0 0 0 0 0 0 0 0 0 0 0 0 0 0 0 0 0 0 0
0 0 0 0 -0 0 0 0 0 0 0 0 0 0 0 0 0 0 0 0 0 0 0 0 0 0 0 0 0 0 0 0 0 0 0 0 0 0 0 0 0 0 0 0
0 -0 0 0 0 0 0 0 0 0 0 0 0 0 0 0 0 0 0 0 0 0 0 0 0 0 0 0 0 0 0 0 0 0 0 0 0 0 0 0 0 0 0 0
-0 -0 0 -0 0 0 0 0 0 0 0 0 0 0 0 0 0 0 0 0 0 0 0 0 0 0 0 0 0 0 0 0 0 0 0 0 0 0 0 0 0 0 0 0
Wind_Speed_500mb
28 37 30 37 41 37 31 37 22 42 41 40 27 13 18 37 40 51 68 78 72 61 62 60 64 63 55 50 50 33 23 16 20 21 34 32 27 31 26 33 31 40 46 50
20 30 29 34 36 45 41 32 29 25 28 9 16 24 31 44 58 69 79 77 69 63 64 61 64 69 61 52 45 43 27 13 24 22 19 26 37 44 41 39 38 41 49 50
10 7 16 17 21 22 8 6 8 15 30 6 21 25 50 60 73 78 78 72 75 77 79 76 68 61 60 52 45 43 34 16 18 24 25 31 39 54 47 42 38 44 48 56
10 11 10 8 7 4 6 17 21 29 14 18 31 54 69 72 73 77 63 74 82 85 87 72 64 57 54 51 46 41 40 23 13 25 24 28 34 43 44 36 42 46 53 59
4 6 29 13 6 5 10 39 4 4 19 44 47 60 66 55 49 62 74 87 85 88 78 68 63 58 51 49 46 42 43 31 14 26 20 24 37 34 38 14 43 57 58 58
4 8 9 9 6 31 3 20 7 20 24 35 49 33 42 71 83 85 87 82 82 78 72 65 55 45 44 47 50 45 46 38 16 31 23 26 37 48 52 27 39 50 57 59
5 7 15 3 36 21 6 14 45 46 52 60 34 39 82 94 86 85 83 82 78 72 69 60 56 49 51 48 52 44 47 42 20 36 27 30 52 60 55 51 47 52 48 51
6 7 15 15 41 5 19 64 42 59 60 61 78 84 83 80 81 81 86 79 74 67 61 55 47 40 49 57 49 43 50 46 23 40 32 43 61 54 59 54 49 52 54 61
11 12 34 77 48 48 55 50 57 63 79 73 77 80 79 79 77 77 79 82 67 63 64 56 53 49 44 46 41 42 51 43 37 50 34 41 52 51 50 47 54 62 61 65
6 11 27 47 62 67 54 57 74 77 70 72 71 72 77 75 76 75 79 74 62 66 67 61 37 30 23 26 33 43 51 41 56 50 40 44 43 48 36 49 64 64 67 71
16 33 38 45 43 60 61 68 70 60 68 68 70 74 75 75 76 76 72 65 65 68 49 38 24 19 19 30 38 41 53 48 59 55 51 55 52 55 49 59 62 65 67 73
11 39 54 48 65 66 63 67 65 70 72 75 70 74 74 71 69 64 65 62 64 56 35 20 16 15 32 40 31 54 53 65 63 62 57 56 58 62 55 55 52 58 62 67
33 35 48 62 59 62 68 69 72 67 70 68 67 67 64 63 60 58 54 58 58 44 16 8 17 24 48 36 40 54 69 65 60 56 54 57 57 61 68 52 49 48 50 59
48 41 40 34 62 65 62 70 67 68 62 60 59 61 61 60 58 52 54 53 43 15 11 33 39 43 36 32 57 56 60 54 51 50 50 54 58 67 64 64 58 48 44 59
40 48 56 63 62 62 63 67 69 65 64 59 61 63 63 54 54 47 47 43 21 21 40 39 30 29 33 55 49 61 58 51 49 54 52 54 65 68 65 61 63 75 81 81
49 57 55 54 56 64 64 71 65 65 60 60 65 59 55 46 44 40 39 31 25 29 37 30 29 31 47 42 60 58 54 48 53 55 56 63 66 66 67 74 86 92 96 95
49 50 55 50 56 63 60 66 60 57 56 55 54 46 47 44 38 37 35 24 27 31 38 42 34 37 41 48 50 50 45 54 54 57 61 65 68 71 79 86 90 97 99 92
43 42 43 47 55 60 62 59 55 50 54 49 42 39 38 39 38 35 30 18 25 37 43 47 41 42 40 43 41 41 47 56 55 56 60 65 71 80 89 90 94 99 94 85
46 44 45 47 54 51 60 51 46 47 54 52 43 37 33 27 35 28 23 19 32 44 45 46 48 40 32 31 29 46 47 54 58 56 60 66 75 89 97 102 99 103 98 97
49 43 43 47 47 45 57 42 40 47 54 60 49 38 32 30 26 28 31 33 30 34 36 42 37 39 37 33 33 43 50 53 55 57 64 69 78 92 98 101 99 108 102 93
47 47 43 46 49 44 51 36 38 46 51 58 56 39 29 26 28 29 34 36 27 22 27 31 42 46 44 42 38 43 47 52 54 62 67 69 76 87 93 94 95 98 102 96
45 46 40 43 46 47 46 35 35 42 49 55 59 41 38 33 20 19 30 26 21 17 24 30 35 34 34 33 39 43 46 50 57 62 64 65 70 82 88 87 89 104 103 91
41 44 38 41 44 42 42 34 34 42 46 49 53 43 40 38 36 32 27 28 26 24 27 29 24 24 28 28 35 40 43 49 52 54 59 62 66 75 87 92 97 105 105 87
36 42 35 36 38 45 35 33 29 37 40 44 47 48 40 42 37 37 38 35 33 34 36 30 27 26 25 28 31 34 36 40 43 48 52 58 66 79 86 89 99 99 84 75
28 37 33 30 42 38 44 30 23 36 40 39 44 48 46 46 37 30 32 37 35 34 34 29 26 24 28 29 30 31 31 36 41 46 52 59 65 77 83 88 92 96 84 69
23 33 36 25 35 35 38 29 27 32 38 37 44 42 52 49 36 40 30 27 30 29 30 28 27 27 28 29 29 29 31 35 40 46 53 61 70 73 78 85 82 79 69 70
19 25 32 24 20 34 48 41 26 22 32 36 46 44 52 49 51 44 54 41 43 38 34 32 29 27 29 30 30 32 35 37 41 50 58 64 67 73 77 73 79 71 68 62
Wind_Direction_500mb
251 261 271 268 277 276 257 256 256 275 278 281 294 293 297 302 304 300 299 304 306 303 309 305 306 307 305 295 283 277 287 255 256 296 244 232 236 248 232 241 228 219 208 200
277 268 257 262 268 267 271 271 261 272 281 315 319 307 303 311 311 308 305 305 304 306 307 303 298 301 299 296 284 271 276 287 237 245 280 237 217 221 226 236 226 226 210 201
263 331 319 286 255 257 262 270 197 281 284 4 324 314 311 315 311 303 298 298 302 305 303 301 304 300 295 293 286 266 263 258 236 235 273 270 238 227 223 220 219 212 205 197
282 326 263 248 37 350 275 272 270 278 321 320 307 307 307 303 293 295 299 302 301 301 303 303 303 296 291 293 285 263 248 248 226 220 248 245 216 211 213 208 211 199 192 189
247 246 283 291 45 320 285 299 300 7 316 306 309 309 301 313 307 298 297 297 297 302 306 305 299 295 286 283 281 261 238 232 228 209 249 236 210 197 199 217 209 193 185 186
262 245 279 237 318 313 233 286 149 326 306 307 316 310 304 313 308 304 304 301 301 307 305 299 294 291 279 275 273 255 232 219 224 208 235 229 187 174 175 214 201 187 173 171
285 270 281 73 348 337 32 305 312 314 308 308 300 290 297 305 304 305 303 304 308 303 301 302 303 285 269 264 265 247 228 205 225 204 219 206 188 183 181 176 168 161 161 153
331 279 284 351 347 341 292 303 308 306 307 301 301 302 302 304 304 305 308 309 314 313 310 314 303 276 259 254 256 236 215 196 222 193 205 196 183 172 175 177 179 177 168 162
213 238 283 297 291 296 308 300 309 311 310 304 300 299 301 303 307 309 310 313 318 318 318 318 302 291 263 245 229 214 197 192 194 188 197 188 180 173 176 178 170 163 165 163
301 265 271 298 303 301 308 305 312 313 304 302 299 303 305 308 309 310 311 315 319 321 315 309 293 282 243 222 200 183 180 184 181 180 180 178 180 171 173 182 167 163 163 162
257 281 307 298 298 303 311 314 315 309 308 309 312 311 311 310 310 312 315 319 321 315 310 308 282 251 196 166 167 171 172 178 173 170 170 170 169 171 182 176 174 170 173 174
283 301 290 292 308 312 313 318 316 317 317 321 323 317 318 317 317 318 321 322 323 322 319 283 265 184 161 156 164 166 166 169 167 167 168 169 167 162 165 170 176 181 179 179
290 303 304 304 313 320 319 321 322 319 321 323 325 325 328 325 327 325 325 328 328 329 334 217 160 153 150 149 155 166 162 164 163 163 165 166 165 164 157 165 182 186 184 184
320 313 311 311 316 324 327 329 327 325 333 331 335 337 338 332 333 332 335 337 340 28 95 129 129 138 144 144 159 166 162 160 161 162 162 168 167 167 168 167 167 156 163 166
305 308 311 318 323 328 333 333 335 336 336 336 341 342 338 334 336 339 343 347 22 108 124 123 114 123 141 152 154 160 159 159 162 165 166 170 168 166 164 156 149 144 146 143
319 316 326 325 329 333 334 335 339 336 337 339 339 343 338 341 346 346 356 10 88 126 140 137 116 120 140 148 154 156 159 161 163 166 166 167 166 162 154 151 149 148 147 145
321 324 327 323 333 334 333 338 340 340 341 345 343 344 344 347 357 3 12 30 104 130 136 139 126 133 135 143 145 149 158 164 163 164 167 169 166 160 156 154 152 152 150 147
338 330 329 328 336 336 333 343 347 353 354 352 347 345 351 358 14 7 16 41 109 134 141 145 125 131 133 135 139 146 154 162 165 166 168 169 165 161 158 157 157 156 149 147
347 336 335 335 338 337 337 346 356 7 4 9 3 358 0 10 30 25 36 72 106 134 139 148 142 137 133 141 143 151 157 164 166 168 170 170 164 164 162 161 159 155 154 160
348 346 344 343 342 342 345 354 5 14 10 13 14 17 24 29 36 50 67 75 86 109 143 152 156 159 157 151 156 156 160 167 168 169 170 168 168 168 167 166 162 159 158 156
349 351 348 347 350 342 354 360 10 12 16 23 15 17 29 46 57 69 73 76 73 96 125 146 153 155 157 155 161 159 162 167 170 172 172 171 172 174 174 169 167 162 155 154
348 351 350 348 355 350 1 5 18 23 20 28 31 29 44 40 54 69 70 72 70 86 116 132 138 142 148 158 162 162 166 170 171 172 174 176 176 176 174 170 166 161 157 159
346 350 350 354 354 351 3 13 35 30 28 25 33 33 44 45 47 64 90 78 73 89 107 112 117 128 138 154 161 165 169 171 172 171 175 177 176 173 173 171 169 165 160 163
345 348 355 355 5 8 11 19 41 40 34 32 35 38 51 53 57 56 77 88 87 96 99 101 101 117 130 142 156 162 164 167 169 171 174 175 174 173 168 163 163 161 163 171
338 353 352 358 6 12 16 25 49 47 40 39 46 42 43 51 68 76 72 82 88 93 96 97 104 120 134 141 149 155 161 164 166 169 171 172 170 171 168 164 168 165 165 171
336 360 355 351 6 18 18 25 38 57 48 49 48 47 51 54 51 69 96 83 84 87 92 97 105 120 130 137 146 154 159 159 162 169 169 167 169 169 168 167 168 167 171 170
347 4 9 12 15 24 33 35 39 76 65 60 53 58 60 62 65 65 69 83 84 88 89 93 102 115 123 126 131 136 144 150 157 161 164 166 166 166 168 168 171 173 174 179
Wind_Speed_850mb
28 37 30 37 41 37 31 37 22 42 41 40 27 13 18 37 40 51 68 78 72 61 62 60 64 63 55 50 50 33 23 16 20 21 34 32 27 31 26 33 31 40 46 50
20 30 29 34 36 45 41 32 29 25 28 9 16 24 31 44 58 69 79 77 69 63 64 61 64 69 61 52 45 43 27 13 24 22 19 26 37 44 41 39 38 41 49 50
10 7 16 17 21 22 8 6 8 15 30 6 21 25 50 60 73 78 78 72 75 77 79 76 68 61 60 52 45 43 34 16 18 24 25 31 39 54 47 42 38 44 48 56
10 11 10 8 7 4 6 17 21 29 14 18 31 54 69 72 73 77 63 74 82 85 87 72 64 57 54 51 46 41 40 23 13 25 24 28 34 43 44 36 42 46 53 59
4 6 29 13 6 5 10 39 4 4 19 44 47 60 66 55 49 62 74 87 85 88 78 68 63 58 51 49 46 42 43 31 14 26 20 24 37 34 38 14 43 57 58 58
4 8 9 9 6 31 3 20 7 20 24 35 49 33 42 71 83 85 87 82 82 78 72 65 55 45 44 47 50 45 46 38 16 31 23 26 37 48 52 27 39 50 57 59
5 7 15 3 36 21 6 14 45 46 52 60 34 39 82 94 86 85 83 82 78 72 69 60 56 49 51 48 52 44 47 42 20 36 27 30 52 60 55 51 47 52 48 51
6 7 15 15 41 5 19 64 42 59 60 61 78 84 83 80 81 81 86 79 74 67 61 55 47 40 49 57 49 43 50 46 23 40 32 43 61 54 59 54 49 52 54 61
11 12 34 77 48 48 55 50 57 63 79 73 77 80 79 79 77 77 79 82 67 63 64 56 53 49 44 46 41 42 51 43 37 50 34 41 52 51 50 47 54 62 61 65
6 11 27 47 62 67 54 57 74 77 70 72 71 72 77 75 76 75 79 74 62 66 67 61 37 30 23 26 33 43 51 41 56 50 40 44 43 48 36 49 64 64 67 71
16 33 38 45 43 60 61 68 70 60 68 68 70 74 75 75 76 76 72 65 65 68 49 38 24 19 19 30 38 41 53 48 59 55 51 55 52 55 49 59 62 65 67 73
11 39 54 48 65 66 63 67 65 70 72 75 70 74 74 71 69 64 65 62 64 56 35 20 16 15 32 40 31 54 53 65 63 62 57 56 58 62 55 55 52 58 62 67
33 35 48 62 59 62 68 69 72 67 70 68 67 67 64 63 60 58 54 58 58 44 16 8 17 24 48 36 40 54 69 65 60 56 54 57 57 61 68 52 49 48 50 59
48 41 40 34 62 65 62 70 67 68 62 60 59 61 61 60 58 52 54 53 43 15 11 33 39 43 36 32 57 56 60 54 51 50 50 54 58 67 64 64 58 48 44 59
40 48 56 63 62 62 63 67 69 65 64 59 61 63 63 54 54 47 47 43 21 21 40 39 30 29 33 55 49 61 58 51 49 54 52 54 65 68 65 61 63 75 81 81
49 57 55 54 56 64 64 71 65 65 60 60 65 59 55 46 44 40 39 31 25 29 37 30 29 31 47 42 60 58 54 48 53 55 56 63 66 66 67 74 86 92 96 95
49 50 55 50 56 63 60 66 60 57 56 55 54 46 47 44 38 37 35 24 27 31 38 42 34 37 41 48 50 50 45 54 54 57 61 65 68 71 79 86 90 97 99 92
43 42 43 47 55 60 62 59 55 50 54 49 42 39 38 39 38 35 30 18 25 37 43 47 41 42 40 43 41 41 47 56 55 56 60 65 71 80 89 90 94 99 94 85
46 44 45 47 54 51 60 51 46 47 54 52 43 37 33 27 35 28 23 19 32 44 45 46 48 40 32 31 29 46 47 54 58 56 60 66 75 89 97 102 99 103 98 97
49 43 43 47 47 45 57 42 40 47 54 60 49 38 32 30 26 28 31 33 30 34 36 42 37 39 37 33 33 43 50 53 55 57 64 69 78 92 98 101 99 108 102 93
47 47 43 46 49 44 51 36 38 46 51 58 56 39 29 26 28 29 34 36 27 22 27 31 42 46 44 42 38 43 47 52 54 62 67 69 76 87 93 94 95 98 102 96
45 46 40 43 46 47 46 35 35 42 49 55 59 41 38 33 20 19 30 26 21 17 24 30 35 34 34 33 39 43 46 50 57 62 64 65 70 82 88 87 89 104 103 91
41 44 38 41 44 42 42 34 34 42 46 49 53 43 40 38 36 32 27 28 26 24 27 29 24 24 28 28 35 40 43 49 52 54 59 62 66 75 87 92 97 105 105 87
36 42 35 36 38 45 35 33 29 37 40 44 47 48 40 42 37 37 38 35 33 34 36 30 27 26 25 28 31 34 36 40 43 48 52 58 66 79 86 89 99 99 84 75
28 37 33 30 42 38 44 30 23 36 40 39 44 48 46 46 37 30 32 37 35 34 34 29 26 24 28 29 30 31 31 36 41 46 52 59 65 77 83 88 92 96 84 69
23 33 36 25 35 35 38 29 27 32 38 37 44 42 52 49 36 40 30 27 30 29 30 28 27 27 28 29 29 29 31 35 40 46 53 61 70 73 78 85 82 79 69 70
19 25 32 24 20 34 48 41 26 22 32 36 46 44 52 49 51 44 54 41 43 38 34 32 29 27 29 30 30 32 35 37 41 50 58 64 67 73 77 73 79 71 68 62
Wind_Direction_850mb
251 261 271 268 277 276 257 256 256 275 278 281 294 293 297 302 304 300 299 304 306 303 309 305 306 307 305 295 283 277 287 255 256 296 244 232 236 248 232 241 228 219 208 200
277 268 257 262 268 267 271 271 261 272 281 315 319 307 303 311 311 308 305 305 304 306 307 303 298 301 299 296 284 271 276 287 237 245 280 237 217 221 226 236 226 226 210 201
263 331 319 286 255 257 262 270 197 281 284 4 324 314 311 315 311 303 298 298 302 305 303 301 304 300 295 293 286 266 263 258 236 235 273 270 238 227 223 220 219 212 205 197
282 326 263 248 37 350 275 272 270 278 321 320 307 307 307 303 293 295 299 302 301 301 303 303 303 296 291 293 285 263 248 248 226 220 248 245 216 211 213 208 211 199 192 189
247 246 283 291 45 320 285 299 300 7 316 306 309 309 301 313 307 298 297 297 297 302 306 305 299 295 286 283 281 261 238 232 228 209 249 236 210 197 199 217 209 193 185 186
262 245 279 237 318 313 233 286 149 326 306 307 316 310 304 313 308 304 304 301 301 307 305 299 294 291 279 275 273 255 232 219 224 208 235 229 187 174 175 214 201 187 173 171
285 270 281 73 348 337 32 305 312 314 308 308 300 290 297 305 304 305 303 304 308 303 301 302 303 285 269 264 265 247 228 205 225 204 219 206 188 183 181 176 168 161 161 153
331 279 284 351 347 341 292 303 308 306 307 301 301 302 302 304 304 305 308 309 314 313 310 314 303 276 259 254 256 236 215 196 222 193 205 196 183 172 175 177 179 177 168 162
213 238 283 297 291 296 308 300 309 311 310 304 300 299 301 303 307 309 310 313 318 318 318 318 302 291 263 245 229 214 197 192 194 188 197 188 180 173 176 178 170 163 165 163
301 265 271 298 303 301 308 305 312 313 304 302 299 303 305 308 309 310 311 315 319 321 315 309 293 282 243 222 200 183 180 184 181 180 180 178 180 171 173 182 167 163 163 162
257 281 307 298 298 303 311 314 315 309 308 309 312 311 311 310 310 312 315 319 321 315 310 308 282 251 196 166 167 171 172 178 173 170 170 170 169 171 182 176 174 170 173 174
283 301 290 292 308 312 313 318 316 317 317 321 323 317 318 317 317 318 321 322 323 322 319 283 265 184 161 156 164 166 166 169 167 167 168 169 167 162 165 170 176 181 179 179
290 303 304 304 313 320 319 321 322 319 321 323 325 325 328 325 327 325 325 328 328 329 334 217 160 153 150 149 155 166 162 164 163 163 165 166 165 164 157 165 182 186 184 184
320 313 311 311 316 324 327 329 327 325 333 331 335 337 338 332 333 332 335 337 340 28 95 129 129 138 144 144 159 166 162 160 161 162 162 168 167 167 168 167 167 156 163 166
305 308 311 318 323 328 333 333 335 336 336 336 341 342 338 334 336 339 343 347 22 108 124 123 114 123 141 152 154 160 159 159 162 165 166 170 168 166 164 156 149 144 146 143
319 316 326 325 329 333 334 335 339 336 337 339 339 343 338 341 346 346 356 10 88 126 140 137 116 120 140 148 154 156 159 161 163 166 166 167 166 162 154 151 149 148 147 145
321 324 327 323 333 334 333 338 340 340 341 345 343 344 344 347 357 3 12 30 104 130 136 139 126 133 135 143 145 149 158 164 163 164 167 169 166 160 156 154 152 152 150 147
338 330 329 328 336 336 333 343 347 353 354 352 347 345 351 358 14 7 16 41 109 134 141 145 125 131 133 135 139 146 154 162 165 166 168 169 165 161 158 157 157 156 149 147
347 336 335 335 338 337 337 346 356 7 4 9 3 358 0 10 30 25 36 72 106 134 139 148 142 137 133 141 143 151 157 164 166 168 170 170 164 164 162 161 159 155 154 160
348 346 344 343 342 342 345 354 5 14 10 13 14 17 24 29 36 50 67 75 86 109 143 152 156 159 157 151 156 156 160 167 168 169 170 168 168 168 167 166 162 159 158 156
349 351 348 347 350 342 354 360 10 12 16 23 15 17 29 46 57 69 73 76 73 96 125 146 153 155 157 155 161 159 162 167 170 172 172 171 172 174 174 169 167 162 155 154
348 351 350 348 355 350 1 5 18 23 20 28 31 29 44 40 54 69 70 72 70 86 116 132 138 142 148 158 162 162 166 170 171 172 174 176 176 176 174 170 166 161 157 159
346 350 350 354 354 351 3 13 35 30 28 25 33 33 44 45 47 64 90 78 73 89 107 112 117 128 138 154 161 165 169 171 172 171 175 177 176 173 173 171 169 165 160 163
345 348 355 355 5 8 11 19 41 40 34 32 35 38 51 53 57 56 77 88 87 96 99 101 101 117 130 142 156 162 164 167 169 171 174 175 174 173 168 163 163 161 163 171
338 353 352 358 6 12 16 25 49 47 40 39 46 42 43 51 68 76 72 82 88 93 96 97 104 120 134 141 149 155 161 164 166 169 171 172 170 171 168 164 168 165 165 171
336 360 355 351 6 18 18 25 38 57 48 49 48 47 51 54 51 69 96 83 84 87 92 97 105 120 130 137 146 154 159 159 162 169 169 167 169 169 168 167 168 167 171 170
347 4 9 12 15 24 33 35 39 76 65 60 53 58 60 62 65 65 69 83 84 88 89 93 102 115 123 126 131 136 144 150 157 161 164 166 166 166 168 168 171 173 174 179